Fort Madison, IA

8:56 PM CDT on April 26, 2017 (GMT -0500)
Fort Madison Municipal

Weather History for KFSW - February, 2013

Change the Weather History Date:

Thursday, February 14, 2013

  Actual Average Record
Temperature  
Mean Temperature 38 °F -  
Max Temperature 44 °F 36 °F 66 °F (1954)
Min Temperature 33 °F 19 °F 1 °F (1986)
Degree Days  
Heating Degree Days 26    
Moisture  
Dew Point 28 °F    
Average Humidity 65    
Maximum Humidity 75    
Minimum Humidity 53    
Precipitation  
Precipitation 0.00 in - - ()
Sea Level Pressure  
Sea Level Pressure 29.90 in    
Wind  
Wind Speed 11 mph (WNW)    
Max Wind Speed 22 mph    
Max Gust Speed 29 mph    
Visibility 10 miles    
Events      
Averages and records for this station are not official NWS values.
T = Trace of Precipitation, MM = Missing Value Source: NWS Daily Summary

Daily Weather History Graph

Daily Weather History Graph

Search for Another Location

Airport or City:

Trip Planner

Search our weather history database for the weather conditions in past years. The results will help you decide how hot, cold, wet, or windy it might be!

Date:

Astronomy

Feb. 14, 2013 Rise Set
Actual Time 7:00 AM CST 5:39 PM CST
Civil Twilight 6:32 AM CST 6:07 PM CST
Nautical Twilight 5:59 AM CST 6:39 PM CST
Astronomical Twilight 5:28 AM CST 7:11 PM CST
Moon 9:00 AM CST (2/14) 10:44 PM CST (2/14)
Length of Visible Light 11h 35m
Length of Day
10h 39m
Waxing Crescent, 22% of the Moon is Illuminated
Feb 14
Waxing Crescent
Feb 17
First Quarter
Feb 25
Full
Mar 4
Last Quarter
Mar 11
New

Hourly Weather History & Observations

Time (CST) Temp. Windchill Dew Point Humidity Pressure Visibility Wind Dir Wind Speed Gust Speed Precip Events Conditions
12:15 AM 41.0 °F 35.2 °F 30.2 °F 65% 29.73 in 10.0 mi SSW 9.2 mph - N/A   Mostly Cloudy
12:35 AM 41.0 °F 34.7 °F 30.2 °F 65% 29.73 in 10.0 mi SSW 10.4 mph - N/A   Overcast
12:55 AM 39.2 °F 32.0 °F 30.2 °F 70% 29.73 in 10.0 mi SSW 11.5 mph - N/A   Overcast
1:15 AM 39.2 °F 33.0 °F 30.2 °F 70% 29.73 in 10.0 mi SSW 9.2 mph - N/A   Overcast
1:35 AM 39.2 °F 33.0 °F 30.2 °F 70% 29.73 in 10.0 mi SW 9.2 mph - N/A   Overcast
1:55 AM 39.2 °F 32.5 °F 30.2 °F 70% 29.73 in 10.0 mi SW 10.4 mph 17.3 mph N/A   Scattered Clouds
2:15 AM 39.2 °F 33.0 °F 30.2 °F 70% 29.73 in 10.0 mi SW 9.2 mph - N/A   Clear
2:35 AM 39.2 °F 33.6 °F 30.2 °F 70% 29.74 in 10.0 mi SW 8.1 mph - N/A   Clear
2:55 AM 37.4 °F 32.1 °F 28.4 °F 70% 29.74 in 10.0 mi SSW 6.9 mph - N/A   Clear
3:15 AM 37.4 °F 32.8 °F 28.4 °F 70% 29.74 in 10.0 mi SW 5.8 mph - N/A   Clear
3:35 AM 39.2 °F 33.6 °F 28.4 °F 65% 29.74 in 10.0 mi WSW 8.1 mph - N/A   Clear
3:55 AM 37.4 °F 32.1 °F 28.4 °F 70% 29.74 in 10.0 mi WSW 6.9 mph - N/A   Clear
4:15 AM 37.4 °F 32.1 °F 26.6 °F 65% 29.74 in 10.0 mi WSW 6.9 mph - N/A   Clear
4:35 AM 37.4 °F 32.1 °F 26.6 °F 65% 29.74 in 10.0 mi WSW 6.9 mph - N/A   Clear
4:55 AM 39.2 °F 34.2 °F 26.6 °F 61% 29.75 in 10.0 mi WSW 6.9 mph - N/A   Clear
5:15 AM 39.2 °F 35.0 °F 26.6 °F 61% 29.76 in 10.0 mi West 5.8 mph - N/A   Clear
5:35 AM 39.2 °F 33.6 °F 26.6 °F 61% 29.76 in 10.0 mi West 8.1 mph - N/A   Clear
5:55 AM 39.2 °F 32.0 °F 26.6 °F 61% 29.76 in 10.0 mi West 11.5 mph 17.3 mph N/A   Clear
6:15 AM 39.2 °F 30.8 °F 26.6 °F 61% 29.77 in 10.0 mi West 15.0 mph 20.7 mph N/A   Clear
6:35 AM 37.4 °F 29.8 °F 28.4 °F 70% 29.78 in 10.0 mi WNW 11.5 mph - N/A   Clear
6:55 AM 37.4 °F 27.8 °F 28.4 °F 70% 29.79 in 10.0 mi WNW 17.3 mph 21.9 mph N/A   Clear
7:15 AM 37.4 °F 28.2 °F 28.4 °F 70% 29.81 in 10.0 mi WNW 16.1 mph - N/A   Mostly Cloudy
7:35 AM 37.4 °F 27.8 °F 28.4 °F 70% 29.82 in 10.0 mi WNW 17.3 mph 26.5 mph N/A   Overcast
7:55 AM 37.4 °F 27.5 °F 28.4 °F 70% 29.83 in 10.0 mi WNW 18.4 mph 26.5 mph N/A   Overcast
8:15 AM 39.2 °F 30.2 °F 28.4 °F 65% 29.83 in 10.0 mi WNW 17.3 mph 27.6 mph N/A   Overcast
8:35 AM 39.2 °F 29.6 °F 28.4 °F 65% 29.84 in 10.0 mi WNW 19.6 mph 26.5 mph N/A   Overcast
8:55 AM 37.4 °F 27.2 °F 28.4 °F 70% 29.85 in 10.0 mi NW 19.6 mph 26.5 mph N/A   Overcast
9:15 AM 37.4 °F 26.9 °F 28.4 °F 70% 29.87 in 10.0 mi WNW 20.7 mph 26.5 mph N/A   Overcast
9:35 AM 39.2 °F 30.5 °F 28.4 °F 65% 29.88 in 10.0 mi WNW 16.1 mph 24.2 mph N/A   Overcast
9:55 AM 39.2 °F 30.5 °F 28.4 °F 65% 29.89 in 10.0 mi WNW 16.1 mph 23.0 mph N/A   Overcast
10:15 AM 39.2 °F 29.6 °F 28.4 °F 65% 29.89 in 10.0 mi WNW 19.6 mph 28.8 mph N/A   Overcast
10:35 AM 39.2 °F 29.6 °F 28.4 °F 65% 29.90 in 10.0 mi WNW 19.6 mph 27.6 mph N/A   Overcast
10:55 AM 39.2 °F 29.0 °F 28.4 °F 65% 29.90 in 10.0 mi WNW 21.9 mph 26.5 mph N/A   Overcast
11:15 AM 39.2 °F 31.2 °F 28.4 °F 65% 29.90 in 10.0 mi WNW 13.8 mph 28.8 mph N/A   Overcast
11:35 AM 39.2 °F 30.2 °F 28.4 °F 65% 29.91 in 10.0 mi WNW 17.3 mph 20.7 mph N/A   Overcast
11:55 AM 39.2 °F 30.5 °F 28.4 °F 65% 29.91 in 10.0 mi WNW 16.1 mph - N/A   Overcast
12:15 PM 39.2 °F 29.6 °F 28.4 °F 65% 29.92 in 10.0 mi WNW 19.6 mph 25.3 mph N/A   Overcast
12:35 PM 39.2 °F 31.2 °F 28.4 °F 65% 29.92 in 10.0 mi WNW 13.8 mph 18.4 mph N/A   Overcast
12:55 PM 39.2 °F 30.2 °F 28.4 °F 65% 29.92 in 10.0 mi NW 17.3 mph - N/A   Overcast
1:15 PM 39.2 °F 31.6 °F 28.4 °F 65% 29.93 in 10.0 mi West 12.7 mph 18.4 mph N/A   Overcast
1:35 PM 39.2 °F 32.0 °F 26.6 °F 61% 29.94 in 10.0 mi WNW 11.5 mph - N/A   Overcast
1:55 PM 41.0 °F 32.8 °F 28.4 °F 61% 29.94 in 10.0 mi WNW 16.1 mph - N/A   Overcast
2:15 PM 41.0 °F 32.8 °F 28.4 °F 61% 29.95 in 10.0 mi WNW 16.1 mph - N/A   Overcast
2:35 PM 42.8 °F 35.8 °F 28.4 °F 57% 29.94 in 10.0 mi NW 13.8 mph 20.7 mph N/A   Mostly Cloudy
2:55 PM 42.8 °F 35.4 °F 28.4 °F 57% 29.95 in 10.0 mi WNW 15.0 mph 18.4 mph N/A   Clear
3:15 PM 42.8 °F 35.4 °F 28.4 °F 57% 29.97 in 10.0 mi WNW 15.0 mph - N/A   Mostly Cloudy
3:35 PM 42.8 °F 36.6 °F 30.2 °F 61% 29.97 in 10.0 mi NW 11.5 mph - N/A   Overcast
3:55 PM 44.6 °F 38.1 °F 28.4 °F 53% 29.96 in 10.0 mi NW 13.8 mph 19.6 mph N/A   Scattered Clouds
4:15 PM 44.6 °F 39.7 °F 28.4 °F 53% 29.97 in 10.0 mi NW 9.2 mph - N/A   Clear
4:35 PM 42.8 °F 39.3 °F 28.4 °F 57% 29.97 in 10.0 mi NW 5.8 mph - N/A   Mostly Cloudy
4:55 PM 42.8 °F 41.1 °F 28.4 °F 57% 29.97 in 10.0 mi WNW 3.5 mph - N/A   Overcast
5:15 PM 42.8 °F 41.1 °F 28.4 °F 57% 29.97 in 10.0 mi WNW 3.5 mph - N/A   Overcast
5:35 PM 42.8 °F 41.1 °F 28.4 °F 57% 29.97 in 10.0 mi WNW 3.5 mph - N/A   Overcast
5:55 PM 41.0 °F 36.4 °F 28.4 °F 61% 29.99 in 10.0 mi WNW 6.9 mph - N/A   Overcast
6:15 PM 41.0 °F 33.9 °F 30.2 °F 65% 30.00 in 10.0 mi NW 12.7 mph 19.6 mph N/A   Drizzle
6:35 PM 39.2 °F 33.6 °F 30.2 °F 70% 30.01 in 10.0 mi WNW 8.1 mph - N/A   Overcast
6:55 PM 39.2 °F 33.6 °F 28.4 °F 65% 30.01 in 10.0 mi West 8.1 mph 16.1 mph N/A   Overcast
7:15 PM 39.2 °F 32.0 °F 28.4 °F 65% 30.02 in 10.0 mi WNW 11.5 mph - N/A   Overcast
7:35 PM 39.2 °F 32.0 °F 26.6 °F 61% 30.02 in 10.0 mi WNW 11.5 mph 16.1 mph N/A   Scattered Clouds
7:55 PM 39.2 °F 30.8 °F 24.8 °F 56% 30.02 in 10.0 mi WNW 15.0 mph - N/A   Clear
8:15 PM 37.4 °F 30.3 °F 24.8 °F 60% 30.03 in 10.0 mi WNW 10.4 mph - N/A   Clear
8:35 PM 35.6 °F 28.6 °F 26.6 °F 70% 30.03 in 10.0 mi NW 9.2 mph - N/A   Clear
8:55 PM 37.4 °F 28.5 °F 26.6 °F 65% 30.03 in 10.0 mi WNW 15.0 mph 20.7 mph N/A   Clear
9:15 PM 35.6 °F 26.6 °F 26.6 °F 70% 30.04 in 10.0 mi WNW 13.8 mph - N/A   Mostly Cloudy
9:35 PM 35.6 °F 28.0 °F 26.6 °F 70% 30.05 in 10.0 mi WNW 10.4 mph - N/A   Scattered Clouds
9:55 PM 35.6 °F 28.6 °F 26.6 °F 70% 30.05 in 10.0 mi WNW 9.2 mph - N/A   Mostly Cloudy
10:15 PM 35.6 °F 28.0 °F 28.4 °F 75% 30.06 in 10.0 mi NW 10.4 mph - N/A   Overcast
10:35 PM 35.6 °F 26.2 °F 26.6 °F 70% 30.07 in 10.0 mi NNW 15.0 mph 20.7 mph N/A   Overcast
10:55 PM 35.6 °F 27.1 °F 26.6 °F 70% 30.08 in 10.0 mi NNW 12.7 mph - N/A   Overcast
11:15 PM 33.8 °F 25.3 °F 24.8 °F 70% 30.08 in 10.0 mi NW 11.5 mph 17.3 mph N/A   Mostly Cloudy
11:35 PM 33.8 °F 25.8 °F 26.6 °F 75% 30.09 in 10.0 mi NW 10.4 mph - N/A   Scattered Clouds
11:55 PM 33.8 °F 25.3 °F 24.8 °F 70% 30.09 in 10.0 mi NW 11.5 mph - N/A   Mostly Cloudy